Terminal Aerodrome Forecast
Issued by NWS Portland, ME

Home | Current Version | Previous Version | Text Only | Print | Product List | Glossary On
Versions: 1 2 3 4 5 6 7 8 9 10 11 12 13 14 15 16 17 18 19 20 21 22
000
FTUS41 KGYX 231700
TAFPWM
TAF
KPWM 231720Z 2318/2418 33016G26KT P6SM VCSH BKN035 OVC060
     FM240000 31013KT P6SM OVC050
     FM240300 29014KT P6SM SKC
     FM241200 32020G33KT P6SM SKC=

USA.gov is the U.S. government's official web portal to all federal, state and local government web resources and services.